Regional Weather Roundup
Issued by NWS

Home | Current Version | Previous Version | Text Only | Print | Product List | Glossary On
Versions: 1 2 3 4 5 6 7 8 9 10 11 12 13 14 15 16 17 18 19 20 21 22 23 24 25 26 27 28 29 30 31 32 33 34 35 36 37 38 39 40 41 42 43 44 45 46 47 48 49 50
590
ASUS44 KJAN 230903
RWRMS

MISSISSIPPI HOURLY WEATHER ROUNDUP
NATIONAL WEATHER SERVICE JACKSON MS
400 AM CDT WED APR 23 2014

NOTE: "FAIR: INDICATES FEW OR NO CLOUDS BELOW 12,000 FEET WITH NO
SIGNIFICANT WEATHER AND/OR OBSTRUCTIONS TO VISIBILITY.

MSZ001>002-007>008-010>013-018>021-025>028-034>036-231000-
NORTHWEST MISSISSIPPI

CITY           SKY/WX    TMP DP  RH WIND       PRES   REMARKS
CLARKSDALE       N/A     52  50  93 N5        29.99R
CLEVELAND      FAIR      53  51  92 NE3       29.96R
GREENWOOD      CLEAR     52  50  93 CALM      29.96R
GREENVILLE     CLEAR     54  50  86 CALM      29.95R
GRENADA        FAIR      48  48 100 CALM      29.97R
OLIVE BRANCH   CLEAR     46  46 100 N3        30.00R
OXFORD         FAIR      46  41  81 CALM      29.99R
TUNICA         SUNNY     50  45  81 N7        30.01R
$$

MSZ003>006-009-014>017-022>024-029>033-037>039-231000-
NORTHEAST MISSISSIPPI

CITY           SKY/WX    TMP DP  RH WIND       PRES   REMARKS
BELMONT        FAIR      53  44  74 CALM      29.97R
COLUMBUS AFB   CLEAR     56  49  77 NW5       29.94R
CORINTH        FAIR      46  45  93 W5        29.98R
GOLDN TRIANGLE CLEAR     55  48  76 NW6       29.97R
STARKVILLE     FAIR      54  52  94 CALM      29.95R
TUPELO         CLEAR     50  43  77 NE8       29.96R
$$

MSZ040-058-231000-
CENTRAL MISSISSIPPI

CITY           SKY/WX    TMP DP  RH WIND       PRES   REMARKS
JACKSON INTL   PTCLDY    54  54 100 CALM      29.95R FOG
JACKSON HAWKNS CLEAR     58  55  90 CALM      29.95S FOG
MERIDIAN KEY   FOG       53  53 100 CALM      29.93S VSB 3/4
MERIDIAN NAS   CLEAR     57  55  93 NW3       29.93R
RAYMOND        HAZE      54  48  82 CALM      29.95R VSB<1/4
VICKSBURG      FOG       57  56  96 CALM      29.96R VSB 1/4
$$

MSZ059>079-231000-
SOUTH MISSISSIPPI

CITY           SKY/WX    TMP DP  RH WIND       PRES   REMARKS
BROOKHAVEN     FAIR      57  57 100 CALM      29.97R FOG
HATTIESBURG    CLEAR     56  55  97 W3        29.93S FOG
MCCOMB         CLEAR     60  57  89 N7        29.95R
NATCHEZ        CLEAR     55  54  94 CALM      29.95S
PINE BELT      CLEAR     61  57  88 NW6       29.93S
$$

MSZ080>082-231000-
COASTAL MISSISSIPPI

CITY           SKY/WX    TMP DP  RH WIND       PRES   REMARKS
BILOXI         CLEAR     63  63 100 CALM      29.92R
PASCAGOULA     FOG       58  57  97 NW3       29.92R VSB 1/2
GULFPORT       CLEAR     64  60  87 NW3       29.92R FOG
$$



USA.gov is the U.S. government's official web portal to all federal, state and local government web resources and services.